Flag for Australia Weather past 2 weeks in Melbourne, Victoria, Australia

Now
46 °F

Passing clouds.


Feels Like: 40 °F
Forecast: 47 / 59 °F
Wind: 15 mph from West

Location: Melbourne Airport

Current Time: Sep 30, 2014 at 10:01:41 PM

Latest Report: Sep 30, 2014 at 9:00 PM


Visibility: N/A

Pressure: 29.92 "Hg

Humidity: 71%

Dew point: 37 °F

Location of MelbourneLocation

Historic Weather in Melbourne — Graph

°F

Melbourne temperature yesterday

Maximum temperature yesterday: 72 °F (at 2:30 PM)
Minimum temperature yesterday: 54 °F (at 3:00 AM)
Average temperature yesterday: 62 °F

Past Weeks' High & Low Weather Summary

 TemperatureHumidityPressure
High81 °F (Sep 28, 3:30 PM)100% (Sep 15, 11:30 PM)30.45 "Hg (Sep 15, 11:30 PM)
Low39 °F (Sep 22, 2:30 AM)20% (Sep 28, 5:30 PM)29.62 "Hg (Sep 28, 5:00 PM)
Average56 °F68%30.07 "Hg
* Reported Sep 15 9:00 PM — Sep 30 9:00 PM, Melbourne, Weather by CustomWeather, © 2014

Note: Actual official high and low records may vary slightly from our data, if they occured in-between our weather recording intervals... More about our weather records

Advertising

Melbourne weather history for previous 24 hours

 ConditionsComfort  
Time TempWeatherWind HumidityBarometerVisibility
9:00 PM
Sep 30
46 °FPassing clouds.15 mph71%29.92 "HgN/A
8:30 PM48 °FPassing clouds.15 mph66%29.92 "HgN/A
8:00 PM48 °FPassing clouds.16 mph71%29.92 "HgN/A
7:30 PM48 °FPassing clouds.16 mph76%29.89 "HgN/A
7:00 PM48 °FPassing clouds.17 mph76%29.86 "HgN/A
6:30 PM50 °FPassing clouds.24 mph62%29.86 "HgN/A
6:00 PM52 °FScattered showers. Passing clouds.21 mph67%29.86 "HgN/A
5:30 PM50 °FPartly cloudy.17 mph71%29.83 "HgN/A
5:00 PM50 °FBroken clouds.25 mph71%29.83 "HgN/A
4:30 PM48 °FBroken clouds.31 mph76%29.83 "HgN/A
4:00 PM50 °FSprinkles. Broken clouds.32 mph88%29.80 "Hg4 mi
3:30 PM55 °FScattered showers. Broken clouds.38 mph82%29.71 "Hg6 mi
3:00 PM70 °FBroken clouds.26 mph31%29.62 "HgN/A
2:52 PM72 °FBroken clouds.23 mph27%29.62 "HgN/A
2:00 PM75 °FSunny.26 mph25%29.62 "Hg10 mi
1:30 PM73 °FSunny.28 mph27%29.62 "Hg10 mi
1:00 PM72 °FSunny.22 mph36%29.65 "Hg10 mi
12:30 PM70 °FSunny.21 mph35%29.68 "Hg10 mi
12:00 PM68 °FSunny.22 mph43%29.68 "Hg10 mi
11:30 AM68 °FSunny.24 mph43%29.71 "Hg10 mi
11:00 AM66 °FSunny.25 mph52%29.74 "Hg10 mi
10:30 AM66 °FScattered clouds.25 mph49%29.74 "HgN/A
10:00 AM66 °FScattered clouds.23 mph49%29.77 "HgN/A
9:00 AM64 °FScattered clouds.23 mph49%29.80 "HgN/A
8:30 AM63 °FPassing clouds.17 mph52%29.80 "HgN/A
8:00 AM61 °FSunny.17 mph59%29.83 "Hg10 mi
7:30 AM57 °FPassing clouds.15 mph67%29.83 "HgN/A
7:00 AM55 °FPassing clouds.15 mph72%29.83 "HgN/A
6:30 AM54 °FSunny.14 mph72%29.83 "Hg10 mi
6:00 AM54 °FPassing clouds.10 mph72%29.83 "HgN/A
5:30 AM54 °FSunny.10 mph72%29.83 "Hg10 mi
5:00 AM54 °FSunny.8 mph72%29.80 "Hg10 mi
4:30 AM54 °FClear.9 mph72%29.80 "Hg10 mi
4:00 AM54 °FClear.12 mph72%29.80 "Hg10 mi
3:30 AM50 °FClear.9 mph82%29.80 "Hg10 mi
3:00 AM52 °FClear.9 mph82%29.80 "Hg10 mi
2:30 AM54 °FClear.9 mph77%29.83 "Hg10 mi
2:00 AM52 °FClear.13 mph82%29.83 "Hg10 mi
1:30 AM57 °FClear.13 mph67%29.83 "Hg10 mi
1:00 AM57 °FClear.12 mph67%29.86 "Hg10 mi
12:30 AM57 °FClear.14 mph67%29.86 "Hg10 mi
12:00 AM59 °FClear.14 mph63%29.86 "Hg10 mi
11:30 PM
Sep 29
57 °FClear.13 mph72%29.89 "Hg10 mi
11:00 PM57 °FClear.15 mph72%29.89 "Hg10 mi
10:30 PM59 °FClear.16 mph68%29.89 "Hg10 mi
10:00 PM59 °FClear.17 mph63%29.89 "Hg10 mi
Weather by CustomWeather, © 2014

See weather overviewHow to use our weather pages